WMT4685 LATI-LIPY

Flight info

Callsign WMT4685
Flight time N/A
Altitude 32000
Route DIRES DCT PAPIZ DCT PISIP DCT VIE DCT RUPAX DCT ERPOG DCT ARSOB/N0338F180 L612 MASEG
Aircraft A21N/M-SDE1E2E3FGIJ1J4RWXY/LB1

Departure

Time N/A
Airport Tirana International Airport Mother Teresa (LATI)

Arrival

Time 2026-04-14 15:51
Airport Marche Airport (LIPY)
Time Latitude Longitude Altitude Speed Heading
2026-04-14 15:48 43.52227 13.23491 2671 ft 158 kts 40°
2026-04-14 15:48 43.53026 13.24452 2666 ft 153 kts 43°
2026-04-14 15:48 43.53807 13.25475 2620 ft 151 kts 44°
2026-04-14 15:49 43.54534 13.26473 2288 ft 147 kts 45°
2026-04-14 15:49 43.55250 13.27464 2013 ft 148 kts 45°
2026-04-14 15:49 43.55975 13.28459 1844 ft 146 kts 44°
2026-04-14 15:49 43.56687 13.29437 1398 ft 147 kts 44°
2026-04-14 15:50 43.57423 13.30449 913 ft 149 kts 43°
2026-04-14 15:50 43.58136 13.31431 663 ft 145 kts 42°
2026-04-14 15:50 43.58861 13.32427 609 ft 148 kts 42°
2026-04-14 15:50 43.59587 13.33430 405 ft 148 kts 42°
2026-04-14 15:51 43.60319 13.34437 211 ft 147 kts 41°
2026-04-14 15:51 43.61039 13.35409 52 ft 146 kts 40°
2026-04-14 15:51 43.61655 13.36246 36 ft 83 kts 46°
2026-04-14 15:51 43.61875 13.36580 32 ft 22 kts 54°
2026-04-14 15:52 43.61877 13.36558 32 ft 11 kts 223°
2026-04-14 15:52 43.61807 13.36467 33 ft 29 kts 224°
2026-04-14 15:52 43.61656 13.36260 36 ft 21 kts 225°
2026-04-14 15:52 43.61555 13.36117 38 ft 20 kts 225°
2026-04-14 15:53 43.61458 13.35986 39 ft 19 kts 224°
2026-04-14 15:53 43.61357 13.35851 39 ft 23 kts 225°
2026-04-14 15:53 43.61229 13.35673 41 ft 21 kts 224°
2026-04-14 15:53 43.61122 13.35564 43 ft 18 kts 192°
2026-04-14 15:54 43.60964 13.35640 45 ft 10 kts 55°
2026-04-14 15:54 43.61019 13.35713 45 ft 10 kts 43°
2026-04-14 15:54 43.61038 13.35751 45 ft 5 kts 88°
2026-04-14 15:55 43.61007 13.35794 45 ft 3 kts 171°
2026-04-14 15:55 43.60999 13.35796 46 ft 0 kts 171°